Retour au catalogue

STARLINK-33813

ActifCommunicationsVLEO
NORAD 63585·PAYLOAD·🇺🇸 United States

Lancé Apr 14, 2025 depuis Cape Canaveral Space Force Station

Loading…

Prochains Passages (prochaines 24 heures)

TLE

FraisSource: CelesTrak SupGP

Époque: Sep 14, 2026, 21:03 UTC

1 63585C 25076S   26257.87756944 -.00021202  00000+0 -76798-3 0  2574
2 63585  43.0021 332.8327 0001499 267.8721 291.3997 15.27586448    14

Suivez STARLINK-33813 en temps réel avec AllMySat

Download on the App Store